THY4KD LTAI-LTFM

Flight info

Callsign THY4KD
Flight time 0h 58m
Altitude 36000
Route EKSEN UM855 SISPI
Aircraft B738/M-SDE2E3FGHIRWXY/LB1

Departure

Time 2026-05-04 13:46
Airport Antalya International Airport (LTAI)

Arrival

Time 2026-05-04 14:44
Airport İstanbul Airport (LTFM)
Time Latitude Longitude Altitude Speed Heading
2026-05-04 13:17 36.89026 30.80148 191 ft 0 kts 96°
2026-05-04 13:36 36.89027 30.80136 191 ft 4 kts 92°
2026-05-04 13:36 36.89024 30.80104 198 ft 4 kts 59°
2026-05-04 13:36 36.89006 30.80085 207 ft 3 kts
2026-05-04 13:36 36.89003 30.80085 207 ft 1 kts
2026-05-04 13:39 36.89008 30.80085 191 ft 2 kts
2026-05-04 13:40 36.89032 30.80088 194 ft 4 kts
2026-05-04 13:40 36.89063 30.80092 194 ft 5 kts
2026-05-04 13:40 36.89101 30.80097 191 ft 6 kts
2026-05-04 13:40 36.89145 30.80114 191 ft 7 kts 47°
2026-05-04 13:41 36.89148 30.80176 193 ft 8 kts 95°
2026-05-04 13:41 36.89141 30.80254 191 ft 11 kts 96°
2026-05-04 13:41 36.89130 30.80379 199 ft 17 kts 96°
2026-05-04 13:42 36.89059 30.80623 196 ft 16 kts 182°
2026-05-04 13:42 36.88946 30.80605 203 ft 17 kts 187°
2026-05-04 13:42 36.88831 30.80590 199 ft 17 kts 186°
2026-05-04 13:42 36.88710 30.80573 192 ft 18 kts 187°
2026-05-04 13:43 36.88580 30.80554 196 ft 19 kts 186°
2026-05-04 13:43 36.88448 30.80537 199 ft 20 kts 186°
2026-05-04 13:43 36.88309 30.80518 196 ft 21 kts 186°
2026-05-04 13:43 36.88178 30.80500 191 ft 19 kts 186°
2026-05-04 13:44 36.88071 30.80506 196 ft 13 kts 140°
2026-05-04 13:44 36.88065 30.80623 189 ft 16 kts 62°
2026-05-04 13:44 36.88116 30.80719 188 ft 10 kts 47°
2026-05-04 13:44 36.88155 30.80734 189 ft 0 kts
2026-05-04 13:45 36.88306 30.80753 195 ft 54 kts
2026-05-04 13:45 36.88903 30.80832 202 ft 116 kts
2026-05-04 13:46 36.89866 30.80990 259 ft 159 kts
2026-05-04 13:46 36.90957 30.81288 883 ft 159 kts
2026-05-04 13:46 36.91979 30.81722 1748 ft 146 kts 14°
2026-05-04 13:46 36.92913 30.82171 2382 ft 151 kts 14°
2026-05-04 13:47 36.93996 30.82671 2535 ft 181 kts 16°
2026-05-04 13:47 36.95174 30.83328 3013 ft 190 kts 17°
2026-05-04 13:47 36.96413 30.83960 3487 ft 195 kts 16°
2026-05-04 13:47 36.97709 30.84580 3963 ft 206 kts 16°
2026-05-04 13:48 36.99100 30.85251 4383 ft 222 kts 16°
2026-05-04 13:48 37.00588 30.85974 4805 ft 237 kts 14°
2026-05-04 13:48 37.02175 30.86659 5368 ft 245 kts 16°
2026-05-04 13:48 37.03767 30.87422 6169 ft 244 kts 18°
2026-05-04 13:49 37.05368 30.88203 6832 ft 249 kts 17°
2026-05-04 13:49 37.07018 30.88878 7583 ft 249 kts
2026-05-04 13:49 37.08741 30.88746 8244 ft 253 kts 347°
2026-05-04 13:49 37.10464 30.88267 9041 ft 254 kts 348°
2026-05-04 13:50 37.12170 30.87885 9893 ft 253 kts 349°
2026-05-04 13:50 37.13936 30.87487 10202 ft 261 kts 348°
2026-05-04 13:50 37.15740 30.87030 10160 ft 268 kts 347°
2026-05-04 13:50 37.17570 30.86535 10098 ft 267 kts 347°
2026-05-04 13:51 37.19381 30.86051 10036 ft 267 kts 347°
2026-05-04 13:51 37.21210 30.85573 10011 ft 266 kts 347°
2026-05-04 13:51 37.23004 30.85111 9997 ft 261 kts 348°
2026-05-04 13:51 37.24769 30.84661 10014 ft 257 kts 348°
2026-05-04 13:52 37.28335 30.83760 10035 ft 265 kts 348°
2026-05-04 13:52 37.30138 30.83305 10009 ft 262 kts 348°
2026-05-04 13:52 37.31931 30.82854 10020 ft 263 kts 348°
2026-05-04 13:53 37.33724 30.82402 10009 ft 263 kts 348°
2026-05-04 13:53 37.35484 30.81956 9998 ft 258 kts 348°
2026-05-04 13:53 37.37237 30.81512 10004 ft 257 kts 348°
2026-05-04 13:54 37.40773 30.80612 10006 ft 264 kts 348°
2026-05-04 13:54 37.42582 30.80183 10028 ft 264 kts 352°
2026-05-04 13:54 37.46204 30.80239 10023 ft 256 kts
2026-05-04 13:55 37.48001 30.80331 10025 ft 259 kts 360°
2026-05-04 13:55 37.51771 30.80507 10256 ft 290 kts 360°
2026-05-04 13:55 37.53864 30.80606 10498 ft 310 kts
2026-05-04 13:56 37.56060 30.80709 10990 ft 320 kts
2026-05-04 13:56 37.58304 30.80815 11696 ft 325 kts 360°
2026-05-04 13:56 37.62891 30.81026 13178 ft 334 kts 359°
2026-05-04 13:57 37.65229 30.81133 13947 ft 338 kts 359°
2026-05-04 13:57 37.67602 30.81241 14601 ft 343 kts 359°
2026-05-04 13:58 37.74820 30.81567 16803 ft 350 kts 358°
2026-05-04 13:58 37.79411 30.79830 18156 ft 352 kts 325°
2026-05-04 13:58 37.81241 30.77753 18749 ft 356 kts 314°
2026-05-04 13:59 37.82924 30.75433 19365 ft 360 kts 313°
2026-05-04 13:59 37.84620 30.73082 19959 ft 363 kts 314°
2026-05-04 13:59 37.88193 30.68489 21111 ft 369 kts 326°
2026-05-04 14:00 37.90486 30.67019 21691 ft 372 kts 340°
2026-05-04 14:00 37.95640 30.65972 22840 ft 380 kts 352°
2026-05-04 14:00 37.98280 30.65651 23368 ft 383 kts 352°
2026-05-04 14:01 38.00947 30.65324 23823 ft 386 kts 352°
2026-05-04 14:01 38.03629 30.64987 24271 ft 389 kts 352°
2026-05-04 14:01 38.09004 30.64295 25181 ft 392 kts 353°
2026-05-04 14:02 38.11734 30.63940 25634 ft 395 kts 353°
2026-05-04 14:02 38.14477 30.63582 26061 ft 397 kts 353°
2026-05-04 14:02 38.17237 30.63221 26463 ft 399 kts 353°
2026-05-04 14:02 38.20008 30.62859 26897 ft 401 kts 354°
2026-05-04 14:03 38.22790 30.62496 27315 ft 403 kts 354°
2026-05-04 14:03 38.25587 30.62130 27700 ft 405 kts 354°
2026-05-04 14:03 38.28398 30.61784 28073 ft 407 kts 356°
2026-05-04 14:03 38.31247 30.61676 28452 ft 409 kts 359°
2026-05-04 14:04 38.36938 30.61648 29163 ft 413 kts 360°
2026-05-04 14:04 38.39822 30.61640 29530 ft 415 kts
2026-05-04 14:04 38.42707 30.61624 29962 ft 415 kts
2026-05-04 14:05 38.48458 30.61571 30732 ft 413 kts 359°
2026-05-04 14:05 38.51343 30.61538 31007 ft 415 kts 359°
2026-05-04 14:05 38.54240 30.61505 31319 ft 416 kts 359°
2026-05-04 14:06 38.57134 30.61471 31670 ft 416 kts 359°
2026-05-04 14:06 38.60029 30.61438 31998 ft 416 kts 359°
2026-05-04 14:06 38.62930 30.61404 32292 ft 417 kts 359°
2026-05-04 14:06 38.65831 30.61371 32605 ft 417 kts 359°
2026-05-04 14:07 38.68732 30.61304 32941 ft 417 kts 355°
2026-05-04 14:07 38.70638 30.61000 33137 ft 417 kts 349°
2026-05-04 14:07 38.73453 30.60117 33455 ft 417 kts 342°
2026-05-04 14:07 38.76152 30.58761 33775 ft 417 kts 334°
2026-05-04 14:08 38.78734 30.57079 34098 ft 417 kts 333°
2026-05-04 14:08 38.81310 30.55362 34321 ft 418 kts 333°
2026-05-04 14:08 38.83902 30.53628 34505 ft 419 kts 333°
2026-05-04 14:08 38.86464 30.51919 34730 ft 420 kts 333°
2026-05-04 14:09 38.91663 30.48475 35179 ft 422 kts 333°
2026-05-04 14:09 38.94280 30.46748 35378 ft 423 kts 333°
2026-05-04 14:10 38.99515 30.43297 35858 ft 423 kts 333°
2026-05-04 14:10 39.02135 30.41569 35979 ft 425 kts 333°
2026-05-04 14:10 39.04784 30.39819 35963 ft 429 kts 333°
2026-05-04 14:11 39.10097 30.36306 35977 ft 428 kts 333°
2026-05-04 14:11 39.17988 30.31076 35982 ft 425 kts 333°
2026-05-04 14:12 39.23242 30.27587 35981 ft 425 kts 333°
2026-05-04 14:13 39.31117 30.22345 35984 ft 424 kts 333°
2026-05-04 14:13 39.36350 30.18854 35984 ft 423 kts 333°
2026-05-04 14:14 39.41589 30.15354 35989 ft 423 kts 333°
2026-05-04 14:14 39.49524 30.10323 35973 ft 423 kts 338°
2026-05-04 14:15 39.55037 30.07327 34967 ft 432 kts 339°
2026-05-04 14:15 39.60594 30.04296 33695 ft 432 kts 339°
2026-05-04 14:16 39.66066 30.01259 32649 ft 423 kts 339°
2026-05-04 14:16 39.68750 29.99760 32187 ft 417 kts 340°
2026-05-04 14:17 39.74024 29.96815 31228 ft 408 kts 340°
2026-05-04 14:17 39.76616 29.95367 30758 ft 404 kts 340°
2026-05-04 14:17 39.81730 29.92497 29820 ft 397 kts 341°
2026-05-04 14:18 39.84219 29.91098 29321 ft 393 kts 341°
2026-05-04 14:18 39.89183 29.88305 28369 ft 384 kts 341°
2026-05-04 14:19 39.94229 29.86861 27619 ft 363 kts
2026-05-04 14:19 39.96740 29.86859 27261 ft 358 kts
2026-05-04 14:19 39.99214 29.86898 26925 ft 352 kts
2026-05-04 14:19 40.01626 29.86934 26621 ft 352 kts
2026-05-04 14:20 40.04130 29.86959 26320 ft 357 kts
2026-05-04 14:20 40.06597 29.86970 25991 ft 359 kts
2026-05-04 14:20 40.09088 29.86971 25665 ft 357 kts
2026-05-04 14:21 40.14025 29.86964 25023 ft 352 kts
2026-05-04 14:21 40.16468 29.86959 24702 ft 350 kts
2026-05-04 14:21 40.18897 29.86955 24388 ft 348 kts
2026-05-04 14:21 40.21319 29.86951 24079 ft 347 kts
2026-05-04 14:22 40.23731 29.86947 23769 ft 347 kts
2026-05-04 14:22 40.26148 29.86943 23433 ft 346 kts
2026-05-04 14:22 40.28552 29.86938 23076 ft 345 kts
2026-05-04 14:22 40.30952 29.86934 22739 ft 344 kts
2026-05-04 14:23 40.35689 29.86925 22115 ft 341 kts
2026-05-04 14:23 40.38087 29.86921 21795 ft 339 kts
2026-05-04 14:23 40.40428 29.87115 21463 ft 335 kts 14°
2026-05-04 14:24 40.42570 29.88134 21206 ft 331 kts 29°
2026-05-04 14:24 40.44507 29.89762 20905 ft 329 kts 30°
2026-05-04 14:24 40.46670 29.90669 20483 ft 330 kts
2026-05-04 14:24 40.48953 29.90317 20070 ft 333 kts 347°
2026-05-04 14:25 40.51095 29.89107 19612 ft 338 kts 334°
2026-05-04 14:25 40.54381 29.84619 18749 ft 349 kts 307°
2026-05-04 14:25 40.55622 29.81888 18372 ft 347 kts 306°
2026-05-04 14:26 40.56811 29.79162 17811 ft 349 kts 305°
2026-05-04 14:26 40.58013 29.76384 17393 ft 346 kts 305°
2026-05-04 14:26 40.59197 29.73657 17023 ft 342 kts 305°
2026-05-04 14:26 40.60380 29.70952 16621 ft 339 kts 305°
2026-05-04 14:27 40.61560 29.68269 16218 ft 337 kts 306°
2026-05-04 14:27 40.62733 29.65614 15853 ft 333 kts 306°
2026-05-04 14:27 40.63893 29.62992 15460 ft 330 kts 306°
2026-05-04 14:27 40.65047 29.60385 15111 ft 327 kts 306°
2026-05-04 14:28 40.66189 29.57806 14756 ft 325 kts 306°
2026-05-04 14:28 40.67323 29.55245 14428 ft 322 kts 306°
2026-05-04 14:28 40.68447 29.52705 14083 ft 319 kts 306°
2026-05-04 14:28 40.69562 29.50184 13745 ft 317 kts 306°
2026-05-04 14:29 40.71753 29.45226 12965 ft 313 kts 306°
2026-05-04 14:29 40.73897 29.40358 12574 ft 296 kts 306°
2026-05-04 14:30 40.74910 29.38049 12492 ft 286 kts 306°
2026-05-04 14:30 40.75887 29.35824 12359 ft 276 kts 306°
2026-05-04 14:30 40.77799 29.31484 11799 ft 272 kts 306°
2026-05-04 14:31 40.78750 29.29324 11502 ft 271 kts 306°
2026-05-04 14:31 40.80632 29.25040 10916 ft 268 kts 306°
2026-05-04 14:32 40.82477 29.20830 10371 ft 264 kts 307°
2026-05-04 14:32 40.83393 29.18738 10079 ft 263 kts 307°
2026-05-04 14:32 40.84307 29.16647 9812 ft 262 kts 307°
2026-05-04 14:32 40.85213 29.14577 9553 ft 259 kts 307°
2026-05-04 14:33 40.86111 29.12520 9295 ft 257 kts 307°
2026-05-04 14:33 40.87011 29.10461 8877 ft 261 kts 307°
2026-05-04 14:33 40.87920 29.08381 8568 ft 260 kts 306°
2026-05-04 14:33 40.88820 29.06313 8295 ft 259 kts 306°
2026-05-04 14:34 40.89716 29.04257 8067 ft 257 kts 306°
2026-05-04 14:34 40.90612 29.02199 7668 ft 262 kts 305°
2026-05-04 14:34 40.91282 28.99945 7199 ft 270 kts 285°
2026-05-04 14:34 40.91482 28.97488 6836 ft 267 kts 282°
2026-05-04 14:35 40.91676 28.95076 6470 ft 259 kts 282°
2026-05-04 14:35 40.91867 28.92803 6353 ft 245 kts 283°
2026-05-04 14:35 40.92054 28.90603 6237 ft 231 kts 283°
2026-05-04 14:35 40.92235 28.88527 5968 ft 225 kts 283°
2026-05-04 14:36 40.92413 28.86504 5572 ft 225 kts 283°
2026-05-04 14:36 40.92594 28.84446 5164 ft 226 kts 283°
2026-05-04 14:36 40.92773 28.82387 4804 ft 225 kts 283°
2026-05-04 14:36 40.93051 28.80401 4573 ft 210 kts 300°
2026-05-04 14:37 40.93900 28.78967 4372 ft 193 kts 322°
2026-05-04 14:37 40.94998 28.77975 4052 ft 191 kts 333°
2026-05-04 14:37 40.96135 28.77096 4016 ft 189 kts 333°
2026-05-04 14:37 40.97323 28.76376 3991 ft 188 kts 353°
2026-05-04 14:38 40.98601 28.76310 4011 ft 181 kts 358°
2026-05-04 14:38 40.99849 28.76237 4017 ft 180 kts 357°
2026-05-04 14:38 41.01108 28.76183 4009 ft 182 kts 358°
2026-05-04 14:38 41.02374 28.76146 3996 ft 182 kts 359°
2026-05-04 14:39 41.03639 28.76116 3992 ft 182 kts 359°
2026-05-04 14:39 41.04904 28.76090 3995 ft 182 kts 359°
2026-05-04 14:39 41.06174 28.76064 4005 ft 183 kts 359°
2026-05-04 14:40 41.08744 28.76013 3815 ft 185 kts 359°
2026-05-04 14:40 41.10003 28.75989 3585 ft 181 kts 359°
2026-05-04 14:40 41.11248 28.75964 3346 ft 177 kts 360°
2026-05-04 14:40 41.12476 28.75940 3094 ft 175 kts 360°
2026-05-04 14:41 41.13679 28.75916 2859 ft 171 kts 360°
2026-05-04 14:41 41.14845 28.75893 2637 ft 163 kts 360°
2026-05-04 14:41 41.16966 28.75851 2188 ft 142 kts 359°
2026-05-04 14:42 41.18969 28.75812 1830 ft 141 kts 359°
2026-05-04 14:42 41.19949 28.75791 1622 ft 144 kts 360°
2026-05-04 14:42 41.20942 28.75773 1436 ft 144 kts 359°
2026-05-04 14:43 41.21936 28.75753 1233 ft 141 kts 359°
2026-05-04 14:43 41.22889 28.75734 1029 ft 134 kts 358°
2026-05-04 14:43 41.23832 28.75704 812 ft 136 kts 357°
2026-05-04 14:43 41.24763 28.75687 620 ft 130 kts 359°
2026-05-04 14:44 41.25648 28.75683 467 ft 125 kts 357°
2026-05-04 14:44 41.26483 28.75651 332 ft 112 kts 356°
2026-05-04 14:44 41.27135 28.75643 333 ft 72 kts
2026-05-04 14:44 41.27374 28.75639 332 ft 14 kts 353°
2026-05-04 14:45 41.27415 28.75608 333 ft 6 kts 302°
2026-05-04 14:45 41.27422 28.75564 330 ft 2 kts 273°
2026-05-04 14:45 41.27422 28.75534 331 ft 5 kts 270°
2026-05-04 14:45 41.27422 28.75494 333 ft 3 kts 270°
2026-05-04 14:46 41.27422 28.75476 330 ft 0 kts 270°
2026-05-04 14:46 41.27422 28.75462 330 ft 4 kts 270°
2026-05-04 14:46 41.27420 28.75401 329 ft 9 kts 256°
2026-05-04 14:46 41.27351 28.75365 331 ft 14 kts 180°
2026-05-04 14:47 41.27238 28.75368 331 ft 17 kts 178°
2026-05-04 14:47 41.27175 28.75370 329 ft 5 kts 178°
2026-05-04 14:47 41.27155 28.75371 332 ft 4 kts 178°
2026-05-04 14:47 41.27101 28.75369 333 ft 10 kts 194°
2026-05-04 14:48 41.27068 28.75301 331 ft 8 kts 258°
2026-05-04 14:48 41.27025 28.75262 333 ft 8 kts 181°
2026-05-04 14:48 41.26963 28.75263 331 ft 10 kts 179°
2026-05-04 14:48 41.26894 28.75264 331 ft 10 kts 179°
2026-05-04 14:49 41.26826 28.75266 332 ft 10 kts 179°
2026-05-04 14:49 41.26754 28.75267 331 ft 12 kts 179°
2026-05-04 14:49 41.26659 28.75270 333 ft 16 kts 178°
2026-05-04 14:49 41.26538 28.75273 332 ft 19 kts 180°
2026-05-04 14:50 41.26394 28.75274 330 ft 22 kts 178°
2026-05-04 14:50 41.26242 28.75280 333 ft 19 kts 180°
2026-05-04 14:50 41.26110 28.75281 333 ft 18 kts 179°
2026-05-04 14:50 41.26010 28.75284 331 ft 13 kts 178°
2026-05-04 14:51 41.25923 28.75287 332 ft 12 kts 179°
2026-05-04 14:51 41.25836 28.75289 330 ft 14 kts 179°
2026-05-04 14:51 41.25738 28.75291 329 ft 14 kts 179°
2026-05-04 14:51 41.25657 28.75252 329 ft 13 kts 241°
2026-05-04 14:52 41.25648 28.75134 330 ft 13 kts 269°
2026-05-04 14:52 41.25646 28.75018 332 ft 12 kts 269°
2026-05-04 14:52 41.25682 28.74931 332 ft 12 kts 354°
2026-05-04 14:52 41.25727 28.74932 329 ft 2 kts
2026-05-04 14:53 41.25730 28.74932 329 ft 0 kts